TimePDT,TemperatureF,Dew PointF,Humidity,Sea Level PressureIn,VisibilityMPH,Wind Direction,Wind SpeedMPH,Gust SpeedMPH,PrecipitationIn,Events,Conditions,WindDirDegrees,DateUTC
12:53 AM,52.0,46.0,80,29.98,10.0,West,3.5,-,N/A,,Overcast,260,2013-10-01 07:53:00
1:53 AM,52.0,46.9,83,30.00,10.0,WNW,9.2,-,0.00,Rain,Light Rain,300,2013-10-01 08:53:00
2:53 AM,51.1,46.9,86,29.99,10.0,South,3.5,-,0.00,,Overcast,190,2013-10-01 09:53:00
3:53 AM,50.0,46.9,89,29.99,10.0,Calm,Calm,-,N/A,,Overcast,0,2013-10-01 10:53:00
4:53 AM,50.0,46.9,89,29.99,10.0,Calm,Calm,-,N/A,,Overcast,0,2013-10-01 11:53:00
5:53 AM,50.0,46.9,89,29.99,10.0,ESE,3.5,-,N/A,,Overcast,110,2013-10-01 12:53:00
6:53 AM,48.9,46.9,93,30.01,9.0,Calm,Calm,-,0.04,Rain,Light Rain,0,2013-10-01 13:53:00
7:53 AM,50.0,48.0,93,30.01,10.0,ESE,3.5,-,0.03,,Mostly Cloudy,120,2013-10-01 14:53:00
8:53 AM,51.1,48.0,89,30.03,7.0,Calm,Calm,-,0.01,Rain,Light Rain,0,2013-10-01 15:53:00
9:53 AM,50.0,46.9,89,30.04,8.0,NW,8.1,-,0.05,Rain,Light Rain,320,2013-10-01 16:53:00
10:53 AM,50.0,46.9,89,30.06,6.0,NW,4.6,-,0.06,Rain,Light Rain,310,2013-10-01 17:53:00
11:53 AM,51.1,46.9,86,30.07,10.0,WNW,3.5,-,0.07,Rain,Light Rain,290,2013-10-01 18:53:00
12:53 PM,51.1,46.9,86,30.08,10.0,Calm,Calm,-,0.03,,Overcast,0,2013-10-01 19:53:00
1:53 PM,53.1,46.0,77,30.08,10.0,Calm,Calm,-,0.00,,Scattered Clouds,0,2013-10-01 20:53:00
2:53 PM,57.0,46.0,67,30.09,10.0,WNW,16.1,-,N/A,,Mostly Cloudy,300,2013-10-01 21:53:00
3:53 PM,57.0,43.0,59,30.11,10.0,WNW,11.5,-,N/A,,Clear,300,2013-10-01 22:53:00
4:53 PM,57.0,43.0,59,30.12,10.0,NNW,10.4,-,N/A,,Clear,330,2013-10-01 23:53:00
5:53 PM,55.9,43.0,62,30.13,10.0,NW,11.5,-,N/A,,Clear,320,2013-10-02 00:53:00
6:53 PM,53.1,44.1,71,30.14,10.0,WNW,6.9,-,N/A,,Partly Cloudy,300,2013-10-02 01:53:00
7:53 PM,50.0,45.0,83,30.16,10.0,WSW,5.8,-,N/A,,Mostly Cloudy,250,2013-10-02 02:53:00
8:53 PM,50.0,44.1,80,30.17,10.0,WSW,5.8,-,N/A,,Mostly Cloudy,240,2013-10-02 03:53:00
9:53 PM,46.0,42.1,86,30.19,10.0,SW,4.6,-,N/A,,Clear,230,2013-10-02 04:53:00
10:53 PM,45.0,39.9,82,30.20,10.0,ESE,3.5,-,N/A,,Clear,120,2013-10-02 05:53:00
11:53 PM,44.1,41.0,89,30.20,10.0,SE,5.8,-,N/A,,Clear,140,2013-10-02 06:53:00